| time (UTC) | temp F | wind direction | speed MPH | gust MPH | rain 1hr in | rain 24hr in | rain mn in | humidity % | barometer mb |
| 20260505170304 | 60 | 344 | 0.0 | 6.0 | 0.00 | 0.00 | 0.00 | 59 | 1012.3 |
| 20260505165804 | 60 | 37 | 3.0 | 7.0 | 0.00 | 0.00 | 0.00 | 60 | 1012.3 |
| 20260505165306 | 60 | 50 | 3.0 | 6.0 | 0.00 | 0.00 | 0.00 | 61 | 1012.4 |
| 20260505164804 | 60 | 30 | 4.0 | 12.0 | 0.00 | 0.00 | 0.00 | 61 | 1012.4 |
| 20260505163804 | 60 | 60 | 2.0 | 8.0 | 0.00 | 0.00 | 0.00 | 60 | 1012.4 |
| 20260505163305 | 60 | 51 | 1.0 | 7.0 | 0.00 | 0.00 | 0.00 | 60 | 1012.4 |
| 20260505162804 | 60 | 49 | 3.0 | 10.0 | 0.00 | 0.00 | 0.00 | 60 | 1012.4 |
| 20260505162306 | 60 | 32 | 5.0 | 8.0 | 0.00 | 0.00 | 0.00 | 60 | 1012.4 |
| 20260505161804 | 60 | 78 | 1.0 | 12.0 | 0.00 | 0.00 | 0.00 | 60 | 1012.4 |
| 20260505161304 | 60 | 58 | 4.0 | 10.0 | 0.00 | 0.00 | 0.00 | 60 | 1012.4 |
| 20260505160804 | 60 | 33 | 4.0 | 9.0 | 0.00 | 0.00 | 0.00 | 59 | 1012.4 |
| 20260505160304 | 60 | 88 | 2.0 | 6.0 | 0.00 | 0.00 | 0.00 | 61 | 1012.4 |
| 20260505153304 | 61 | 46 | 4.0 | 12.0 | 0.00 | 0.00 | 0.00 | 56 | 1012.5 |
| 20260505152805 | 62 | 53 | 0.0 | 10.0 | 0.00 | 0.00 | 0.00 | 56 | 1012.4 |
| 20260505152305 | 63 | 326 | 3.0 | 10.0 | 0.00 | 0.00 | 0.00 | 55 | 1012.5 |
| 20260505151804 | 63 | 44 | 2.0 | 12.0 | 0.00 | 0.00 | 0.00 | 53 | 1012.5 |
| 20260505150304 | 63 | 236 | 3.0 | 7.0 | 0.00 | 0.00 | 0.00 | 52 | 1012.5 |
| 20260505140304 | 63 | 99 | 1.0 | 6.0 | 0.00 | 0.00 | 0.00 | 51 | 1012.7 |
| 20260505130304 | 62 | 59 | 4.0 | 12.0 | 0.00 | 0.00 | 0.00 | 54 | 1012.9 |
| 20260505124804 | 62 | 73 | 6.0 | 12.0 | 0.00 | 0.00 | 0.00 | 55 | 1012.9 |
| 20260505124304 | 62 | 83 | 6.0 | 15.0 | 0.00 | 0.00 | 0.00 | 56 | 1012.9 |
| 20260505123804 | 62 | 36 | 3.0 | 9.0 | 0.00 | 0.00 | 0.00 | 55 | 1012.9 |
| 20260505123304 | 62 | 73 | 3.0 | 8.0 | 0.00 | 0.00 | 0.00 | 54 | 1012.9 |
| 20260505122804 | 62 | 72 | 4.0 | 10.0 | 0.00 | 0.00 | 0.00 | 55 | 1012.9 |
| 20260505122305 | 61 | 236 | 2.0 | 5.0 | 0.00 | 0.00 | 0.00 | 56 | 1012.8 |
| 20260505121804 | 61 | 73 | 3.0 | 10.0 | 0.00 | 0.00 | 0.00 | 56 | 1012.8 |
| 20260505121305 | 61 | 50 | 3.0 | 13.0 | 0.00 | 0.00 | 0.00 | 57 | 1012.9 |
| 20260505120804 | 61 | 86 | 3.0 | 9.0 | 0.00 | 0.00 | 0.00 | 56 | 1013.0 |
| 20260505120304 | 61 | 96 | 4.0 | 12.0 | 0.00 | 0.00 | 0.00 | 56 | 1012.9 |
| 20260505115804 | 61 | 66 | 3.0 | 7.0 | 0.00 | 0.00 | 0.00 | 58 | 1013.0 |
| 20260505115305 | 61 | 66 | 3.0 | 10.0 | 0.00 | 0.00 | 0.00 | 58 | 1013.0 |
| 20260505114804 | 61 | 41 | 3.0 | 9.0 | 0.00 | 0.00 | 0.00 | 57 | 1013.0 |
| 20260505114304 | 61 | 67 | 3.0 | 8.0 | 0.00 | 0.00 | 0.00 | 57 | 1013.0 |
| 20260505113804 | 61 | 38 | 3.0 | 8.0 | 0.00 | 0.00 | 0.00 | 57 | 1013.0 |
| 20260505113304 | 61 | 83 | 4.0 | 8.0 | 0.00 | 0.00 | 0.00 | 55 | 1013.1 |
| 20260505112305 | 61 | 62 | 3.0 | 6.0 | 0.00 | 0.00 | 0.00 | 58 | 1013.1 |
| 20260505111804 | 61 | 48 | 3.0 | 9.0 | 0.00 | 0.00 | 0.00 | 58 | 1013.2 |
| 20260505111304 | 61 | 62 | 3.0 | 9.0 | 0.00 | 0.00 | 0.00 | 56 | 1013.3 |
| 20260505110804 | 61 | 57 | 2.0 | 7.0 | 0.00 | 0.00 | 0.00 | 58 | 1013.3 |
| 20260505100804 | 59 | 43 | 0.0 | 6.0 | 0.00 | 0.00 | 0.00 | 62 | 1013.5 |
| 20260505100305 | 60 | 71 | 1.0 | 9.0 | 0.00 | 0.00 | 0.00 | 62 | 1013.5 |
| 20260505095804 | 60 | 36 | 2.0 | 5.0 | 0.00 | 0.00 | 0.00 | 62 | 1013.6 |
| 20260505094804 | 59 | 104 | 1.0 | 6.0 | 0.00 | 0.00 | 0.00 | 62 | 1013.7 |
| 20260505094304 | 59 | 81 | 1.0 | 7.0 | 0.00 | 0.00 | 0.00 | 62 | 1013.6 |
| 20260505093804 | 59 | 71 | 0.0 | 5.0 | 0.00 | 0.00 | 0.00 | 63 | 1013.6 |
| 20260505093305 | 59 | 28 | 2.0 | 6.0 | 0.00 | 0.00 | 0.00 | 62 | 1013.6 |
| 20260505092804 | 59 | 43 | 0.0 | 1.0 | 0.00 | 0.00 | 0.00 | 64 | 1013.6 |
| 20260505092305 | 58 | 92 | 2.0 | 7.0 | 0.00 | 0.00 | 0.00 | 65 | 1013.7 |
| 20260505091804 | 58 | 71 | 4.0 | 12.0 | 0.00 | 0.00 | 0.00 | 64 | 1013.7 |
| 20260505091304 | 58 | 73 | 2.0 | 7.0 | 0.00 | 0.00 | 0.00 | 66 | 1013.7 |
| 20260505090304 | 57 | 76 | 0.0 | 3.0 | 0.00 | 0.00 | 0.00 | 66 | 1013.8 |
| 20260505085804 | 57 | 101 | 2.0 | 9.0 | 0.00 | 0.00 | 0.00 | 66 | 1013.8 |
| 20260505085305 | 57 | 72 | 3.0 | 7.0 | 0.00 | 0.00 | 0.00 | 65 | 1013.8 |
| 20260505084804 | 57 | 46 | 3.0 | 9.0 | 0.00 | 0.00 | 0.00 | 67 | 1013.7 |
| 20260505084304 | 57 | 64 | 2.0 | 13.0 | 0.00 | 0.00 | 0.00 | 67 | 1013.7 |
| 20260505082305 | 57 | 79 | 1.0 | 7.0 | 0.00 | 0.00 | 0.00 | 69 | 1013.8 |
| 20260505081804 | 56 | 94 | 2.0 | 7.0 | 0.00 | 0.00 | 0.00 | 69 | 1013.8 |
| 20260505081304 | 56 | 45 | 2.0 | 8.0 | 0.00 | 0.00 | 0.00 | 70 | 1013.9 |
| 20260505080804 | 56 | 58 | 3.0 | 10.0 | 0.00 | 0.00 | 0.00 | 70 | 1013.9 |
| 20260505080304 | 55 | 81 | 1.0 | 9.0 | 0.00 | 0.00 | 0.00 | 71 | 1013.9 |
| 20260505075804 | 55 | 76 | 2.0 | 9.0 | 0.00 | 0.00 | 0.00 | 73 | 1013.9 |
| 20260505075304 | 54 | 58 | 5.0 | 9.0 | 0.00 | 0.00 | 0.00 | 73 | 1013.9 |
| 20260505074804 | 54 | 73 | 3.0 | 7.0 | 0.00 | 0.00 | 0.00 | 75 | 1014.0 |
| 20260505074304 | 53 | 48 | 1.0 | 5.0 | 0.00 | 0.00 | 0.00 | 78 | 1014.0 |
| 20260505073303 | 53 | 15 | 2.0 | 6.0 | 0.00 | 0.00 | 0.00 | 80 | 1014.0 |
| 20260505071804 | 53 | 61 | 2.0 | 6.0 | 0.00 | 0.00 | 0.00 | 80 | 1014.1 |
| 20260505070804 | 53 | 91 | 2.0 | 5.0 | 0.00 | 0.00 | 0.00 | 80 | 1014.1 |
| 20260505065804 | 53 | 52 | 2.0 | 6.0 | 0.00 | 0.02 | 0.00 | 80 | 1014.1 |
| 20260505065304 | 53 | 57 | 1.0 | 5.0 | 0.00 | 0.02 | 0.00 | 80 | 1014.0 |
| 20260505064803 | 52 | 42 | 2.0 | 6.0 | 0.00 | 0.02 | 0.00 | 80 | 1014.0 |
| 20260505063804 | 52 | 20 | 3.0 | 7.0 | 0.00 | 0.02 | 0.00 | 81 | 1014.0 |
| 20260505063303 | 53 | 34 | 2.0 | 5.0 | 0.00 | 0.02 | 0.00 | 81 | 1013.9 |
| 20260505062804 | 53 | 89 | 2.0 | 5.0 | 0.00 | 0.02 | 0.00 | 81 | 1013.9 |
| 20260505062304 | 53 | 74 | 2.0 | 3.0 | 0.00 | 0.02 | 0.00 | 81 | 1013.9 |
| 20260505061304 | 53 | 100 | 1.0 | 3.0 | 0.00 | 0.02 | 0.00 | 82 | 1013.9 |
| 20260505060804 | 52 | 105 | 2.0 | 5.0 | 0.00 | 0.02 | 0.00 | 83 | 1013.8 |
| 20260505060303 | 52 | 67 | 2.0 | 3.0 | 0.00 | 0.02 | 0.00 | 84 | 1013.8 |
| 20260505055804 | 52 | 80 | 3.0 | 6.0 | 0.00 | 0.03 | 0.00 | 85 | 1013.8 |
| 20260505055304 | 51 | 51 | 2.0 | 3.0 | 0.00 | 0.03 | 0.00 | 85 | 1013.7 |
| 20260505054804 | 51 | 95 | 2.0 | 5.0 | 0.00 | 0.03 | 0.00 | 86 | 1013.7 |
| 20260505054304 | 51 | 74 | 2.0 | 3.0 | 0.00 | 0.03 | 0.00 | 87 | 1013.7 |
| 20260505053804 | 51 | 49 | 2.0 | 3.0 | 0.00 | 0.03 | 0.00 | 88 | 1013.7 |
| 20260505052805 | 51 | 116 | 0.0 | 0.0 | 0.00 | 0.03 | 0.00 | 89 | 1013.7 |
| 20260505052304 | 51 | 105 | 0.0 | 0.0 | 0.00 | 0.03 | 0.00 | 89 | 1013.7 |
| 20260505051304 | 51 | 96 | 1.0 | 3.0 | 0.00 | 0.03 | 0.00 | 89 | 1013.8 |
| 20260505050803 | 51 | 81 | 2.0 | 3.0 | 0.00 | 0.03 | 0.00 | 89 | 1013.9 |
| 20260505041304 | 51 | 81 | 1.0 | 2.0 | 0.00 | 0.03 | 0.00 | 89 | 1013.8 |
| 20260505040804 | 51 | 81 | 0.0 | 1.0 | 0.00 | 0.03 | 0.00 | 89 | 1013.7 |
| 20260505040304 | 51 | 81 | 1.0 | 3.0 | 0.00 | 0.03 | 0.00 | 89 | 1013.7 |
| 20260505035804 | 51 | 84 | 1.0 | 2.0 | 0.00 | 0.03 | 0.00 | 89 | 1013.6 |
| 20260505035304 | 51 | 84 | 0.0 | 3.0 | 0.00 | 0.03 | 0.00 | 89 | 1013.6 |
| 20260505034304 | 51 | 55 | 1.0 | 3.0 | 0.00 | 0.03 | 0.00 | 89 | 1013.4 |
| 20260505033304 | 51 | 59 | 1.0 | 3.0 | 0.00 | 0.03 | 0.00 | 89 | 1013.4 |
| 20260505032804 | 51 | 57 | 1.0 | 3.0 | 0.00 | 0.03 | 0.00 | 89 | 1013.5 |
| 20260505032304 | 51 | 59 | 1.0 | 3.0 | 0.00 | 0.03 | 0.00 | 89 | 1013.6 |
| 20260505031303 | 51 | 64 | 1.0 | 3.0 | 0.00 | 0.03 | 0.00 | 89 | 1013.6 |
| 20260505030804 | 51 | 98 | 0.0 | 2.0 | 0.00 | 0.03 | 0.00 | 89 | 1013.6 |
| 20260505030305 | 51 | 100 | 1.0 | 3.0 | 0.00 | 0.03 | 0.00 | 89 | 1013.7 |
| 20260505025803 | 51 | 80 | 2.0 | 3.0 | 0.00 | 0.03 | 0.00 | 89 | 1013.7 |
| 20260505025305 | 51 | 85 | 2.0 | 5.0 | 0.00 | 0.03 | 0.00 | 89 | 1013.8 |
| 20260505024804 | 51 | 81 | 2.0 | 3.0 | 0.00 | 0.03 | 0.00 | 89 | 1013.8 |
| 20260505024303 | 51 | 60 | 2.0 | 6.0 | 0.00 | 0.03 | 0.00 | 89 | 1013.7 |
| 20260505023804 | 51 | 90 | 2.0 | 5.0 | 0.00 | 0.03 | 0.00 | 89 | 1013.8 |
| 20260505023304 | 51 | 90 | 1.0 | 5.0 | 0.00 | 0.03 | 0.00 | 89 | 1013.9 |
| 20260505022804 | 51 | 78 | 2.0 | 7.0 | 0.00 | 0.03 | 0.00 | 89 | 1013.8 |
| 20260505021304 | 51 | 80 | 1.0 | 3.0 | 0.00 | 0.03 | 0.00 | 88 | 1013.9 |
| 20260505020804 | 51 | 82 | 1.0 | 2.0 | 0.00 | 0.03 | 0.00 | 88 | 1013.9 |
| 20260505015804 | 51 | 82 | 1.0 | 2.0 | 0.00 | 0.03 | 0.00 | 88 | 1014.0 |
| 20260505015304 | 52 | 82 | 1.0 | 3.0 | 0.00 | 0.03 | 0.00 | 88 | 1014.0 |
| 20260505014804 | 52 | 81 | 1.0 | 3.0 | 0.00 | 0.03 | 0.00 | 88 | 1014.1 |
| 20260505014305 | 52 | 73 | 1.0 | 3.0 | 0.00 | 0.03 | 0.00 | 88 | 1014.0 |
| 20260505013804 | 52 | 65 | 2.0 | 3.0 | 0.00 | 0.03 | 0.00 | 88 | 1014.0 |
| 20260505013304 | 52 | 88 | 1.0 | 3.0 | 0.00 | 0.03 | 0.00 | 88 | 1014.0 |
| 20260505012803 | 52 | 80 | 1.0 | 6.0 | 0.00 | 0.03 | 0.00 | 88 | 1013.9 |
| 20260505011804 | 53 | 96 | 2.0 | 5.0 | 0.00 | 0.03 | 0.00 | 88 | 1014.0 |
| 20260505011304 | 53 | 80 | 1.0 | 5.0 | 0.00 | 0.03 | 0.00 | 88 | 1014.1 |
| 20260505005804 | 53 | 53 | 1.0 | 2.0 | 0.00 | 0.03 | 0.00 | 87 | 1014.1 |
| 20260505005304 | 53 | 53 | 1.0 | 3.0 | 0.00 | 0.03 | 0.00 | 87 | 1014.1 |
| 20260505004803 | 53 | 92 | 1.0 | 3.0 | 0.00 | 0.03 | 0.00 | 87 | 1014.1 |
| 20260505004304 | 53 | 88 | 1.0 | 3.0 | 0.00 | 0.03 | 0.00 | 87 | 1014.1 |
| 20260505003804 | 53 | 74 | 1.0 | 3.0 | 0.00 | 0.03 | 0.00 | 87 | 1014.1 |
| 20260505003303 | 53 | 64 | 2.0 | 5.0 | 0.00 | 0.03 | 0.00 | 87 | 1014.0 |
| 20260505002804 | 53 | 50 | 2.0 | 3.0 | 0.00 | 0.03 | 0.00 | 87 | 1014.0 |
| 20260505002304 | 53 | 73 | 2.0 | 5.0 | 0.00 | 0.03 | 0.00 | 87 | 1014.0 |
| 20260505001803 | 53 | 63 | 1.0 | 3.0 | 0.00 | 0.03 | 0.00 | 87 | 1014.1 |
| 20260505001304 | 54 | 72 | 1.0 | 2.0 | 0.00 | 0.03 | 0.00 | 87 | 1014.1 |
| 20260505000804 | 54 | 55 | 1.0 | 2.0 | 0.00 | 0.03 | 0.00 | 87 | 1014.1 |
| 20260505000304 | 54 | 89 | 1.0 | 3.0 | 0.00 | 0.03 | 0.00 | 87 | 1014.2 |
| 20260504235804 | 54 | 53 | 1.0 | 3.0 | 0.00 | 0.03 | 0.00 | 87 | 1014.2 |
| 20260504235304 | 54 | 32 | 2.0 | 3.0 | 0.00 | 0.03 | 0.00 | 87 | 1014.3 |
| 20260504234804 | 54 | 29 | 1.0 | 3.0 | 0.00 | 0.03 | 0.00 | 87 | 1014.3 |
| 20260504234304 | 55 | 94 | 1.0 | 3.0 | 0.00 | 0.03 | 0.00 | 86 | 1014.4 |
| 20260504233803 | 55 | 79 | 1.0 | 3.0 | 0.00 | 0.03 | 0.00 | 87 | 1014.4 |
| 20260504233304 | 55 | 78 | 0.0 | 2.0 | 0.00 | 0.03 | 0.00 | 86 | 1014.5 |
| 20260504232803 | 55 | 78 | 0.0 | 2.0 | 0.00 | 0.03 | 0.00 | 86 | 1014.5 |
| 20260504232304 | 55 | 79 | 1.0 | 3.0 | 0.00 | 0.03 | 0.00 | 86 | 1014.5 |
| 20260504231804 | 55 | 81 | 1.0 | 2.0 | 0.00 | 0.03 | 0.00 | 86 | 1014.4 |
| 20260504231304 | 55 | 82 | 2.0 | 3.0 | 0.00 | 0.03 | 0.00 | 86 | 1014.3 |
| 20260504230819 | 55 | 63 | 1.0 | 3.0 | 0.00 | 0.03 | 0.00 | 86 | 1014.3 |
| 20260504225804 | 56 | 87 | 0.0 | 1.0 | 0.00 | 0.03 | 0.03 | 86 | 1014.2 |
| 20260504225304 | 56 | 87 | 0.0 | 2.0 | 0.00 | 0.03 | 0.03 | 85 | 1014.2 |
| 20260504224303 | 56 | 87 | 1.0 | 3.0 | 0.00 | 0.03 | 0.03 | 85 | 1014.3 |
| 20260504223304 | 56 | 88 | 2.0 | 3.0 | 0.00 | 0.03 | 0.03 | 85 | 1014.3 |
| 20260504222804 | 56 | 78 | 1.0 | 3.0 | 0.00 | 0.03 | 0.03 | 85 | 1014.3 |
| 20260504222305 | 56 | 95 | 1.0 | 3.0 | 0.00 | 0.03 | 0.03 | 85 | 1014.3 |
| 20260504221803 | 56 | 95 | 0.0 | 2.0 | 0.00 | 0.03 | 0.03 | 85 | 1014.3 |
| 20260504221304 | 56 | 95 | 1.0 | 2.0 | 0.00 | 0.03 | 0.03 | 85 | 1014.2 |
| 20260504220304 | 56 | 95 | 1.0 | 2.0 | 0.00 | 0.03 | 0.03 | 84 | 1014.2 |
| 20260504215803 | 56 | 96 | 0.0 | 2.0 | 0.00 | 0.03 | 0.03 | 84 | 1014.3 |
| 20260504215305 | 56 | 96 | 0.0 | 2.0 | 0.00 | 0.03 | 0.03 | 84 | 1014.3 |
| 20260504214804 | 56 | 96 | 0.0 | 2.0 | 0.00 | 0.04 | 0.03 | 83 | 1014.3 |
| 20260504214304 | 57 | 96 | 0.0 | 2.0 | 0.00 | 0.04 | 0.03 | 83 | 1014.3 |
| 20260504213803 | 57 | 96 | 0.0 | 1.0 | 0.00 | 0.04 | 0.03 | 83 | 1014.3 |
| 20260504213304 | 57 | 96 | 0.0 | 2.0 | 0.00 | 0.04 | 0.03 | 82 | 1014.3 |
| 20260504212804 | 57 | 96 | 0.0 | 2.0 | 0.00 | 0.04 | 0.03 | 82 | 1014.3 |
| 20260504212304 | 57 | 96 | 0.0 | 2.0 | 0.00 | 0.04 | 0.03 | 82 | 1014.3 |
| 20260504211804 | 57 | 96 | 1.0 | 3.0 | 0.00 | 0.04 | 0.03 | 81 | 1014.3 |
| 20260504211304 | 58 | 96 | 0.0 | 2.0 | 0.00 | 0.04 | 0.03 | 81 | 1014.3 |
| 20260504210804 | 58 | 96 | 1.0 | 3.0 | 0.00 | 0.04 | 0.03 | 81 | 1014.3 |
| 20260504210304 | 58 | 96 | 1.0 | 3.0 | 0.00 | 0.04 | 0.03 | 81 | 1014.3 |
| 20260504205804 | 58 | 96 | 1.0 | 3.0 | 0.00 | 0.04 | 0.03 | 81 | 1014.4 |
| 20260504205304 | 58 | 96 | 1.0 | 2.0 | 0.00 | 0.04 | 0.03 | 80 | 1014.3 |
| 20260504204305 | 58 | 83 | 1.0 | 3.0 | 0.00 | 0.04 | 0.03 | 80 | 1014.3 |
| 20260504203805 | 58 | 90 | 1.0 | 3.0 | 0.00 | 0.04 | 0.03 | 80 | 1014.3 |
| 20260504202805 | 59 | 32 | 1.0 | 3.0 | 0.00 | 0.04 | 0.03 | 80 | 1014.3 |
| 20260504202305 | 59 | 39 | 1.0 | 5.0 | 0.00 | 0.04 | 0.03 | 79 | 1014.2 |
| 20260504201805 | 59 | 58 | 1.0 | 3.0 | 0.00 | 0.05 | 0.03 | 79 | 1014.2 |
| 20260504201306 | 59 | 76 | 1.0 | 3.0 | 0.00 | 0.08 | 0.03 | 79 | 1014.1 |
| 20260504200805 | 59 | 73 | 2.0 | 3.0 | 0.00 | 0.09 | 0.03 | 79 | 1014.1 |
| 20260504195305 | 59 | 75 | 1.0 | 5.0 | 0.00 | 0.14 | 0.03 | 78 | 1013.9 |
| 20260504192805 | 60 | 88 | 2.0 | 3.0 | 0.00 | 0.14 | 0.03 | 77 | 1013.6 |
| 20260504192305 | 60 | 64 | 2.0 | 5.0 | 0.00 | 0.14 | 0.03 | 77 | 1013.5 |
| 20260504191805 | 60 | 34 | 1.0 | 3.0 | 0.00 | 0.14 | 0.03 | 76 | 1013.5 |
| 20260504191305 | 61 | 53 | 2.0 | 5.0 | 0.00 | 0.14 | 0.03 | 76 | 1013.5 |
| 20260504190805 | 61 | 55 | 3.0 | 7.0 | 0.00 | 0.14 | 0.03 | 75 | 1013.5 |
| 20260504190305 | 61 | 56 | 2.0 | 3.0 | 0.00 | 0.14 | 0.03 | 75 | 1013.5 |
| 20260504184305 | 62 | 86 | 3.0 | 6.0 | 0.00 | 0.14 | 0.03 | 74 | 1013.3 |
| 20260504183805 | 62 | 75 | 1.0 | 3.0 | 0.00 | 0.14 | 0.03 | 75 | 1013.3 |
| 20260504183305 | 62 | 77 | 2.0 | 3.0 | 0.00 | 0.14 | 0.03 | 74 | 1013.3 |
| 20260504182805 | 62 | 85 | 3.0 | 7.0 | 0.00 | 0.14 | 0.03 | 74 | 1013.3 |
| 20260504182305 | 62 | 78 | 3.0 | 5.0 | 0.00 | 0.14 | 0.03 | 74 | 1013.2 |
| 20260504181805 | 62 | 25 | 2.0 | 6.0 | 0.00 | 0.14 | 0.03 | 73 | 1013.1 |
| 20260504181305 | 62 | 66 | 2.0 | 3.0 | 0.00 | 0.14 | 0.03 | 74 | 1013.1 |
| 20260504180804 | 62 | 68 | 2.0 | 9.0 | 0.00 | 0.14 | 0.03 | 74 | 1013.1 |
| 20260504180305 | 62 | 59 | 3.0 | 5.0 | 0.00 | 0.14 | 0.03 | 73 | 1013.1 |
| 20260504175805 | 62 | 59 | 3.0 | 5.0 | 0.00 | 0.14 | 0.03 | 73 | 1013.1 |
| 20260504174804 | 62 | 64 | 3.0 | 6.0 | 0.00 | 0.14 | 0.03 | 74 | 1013.1 |
| 20260504174305 | 62 | 65 | 2.0 | 5.0 | 0.00 | 0.14 | 0.03 | 74 | 1013.1 |
| 20260504173805 | 62 | 57 | 2.0 | 5.0 | 0.00 | 0.14 | 0.03 | 74 | 1013.0 |
| 20260504172305 | 62 | 87 | 3.0 | 6.0 | 0.00 | 0.14 | 0.03 | 74 | 1013.1 |
| 20260504171804 | 62 | 97 | 4.0 | 7.0 | 0.00 | 0.14 | 0.03 | 73 | 1013.1 |
| 20260504171304 | 63 | 106 | 4.0 | 6.0 | 0.00 | 0.14 | 0.03 | 73 | 1013.1 |